Es ist keine erhöhte Aufmerksamkeit aufgrund des Wetters notwendig.    Es gibt keine Warnungen.
Webcam Vorhersage DWD Regenradar Wetterlage NRW Blitze Wind GFS-Modell
webcam


Kleve -Düffelward more information Kleve -Düffelward


Goch more information Goch


Thunder radar more information blitzortung!


Weitere Templates dieser Seite und andere Webseiten:

Meteotemplate

Awekas - Template

weather34 - Template

Wetter aus Willich

Hubert Reyers' Wetter


te
World Weather Websites
 

METAR-Meldungen aus der Umgebung

   
EHDL - Nijmegen
Aktualisierung: 15-05-2021 10:55
Stark bewölkt  
Stark bewölkt  
   Wind: SW 13 km/h
Wind: SW 13 km/h
Temperatur: 11°C
Taupunkt: 7°C
Luftfeuchte: 77%
Luftdruck: 1004 hPa
Bewölkt: Stark bewölkt
Sichtbarkeit: More than 10 km
Bewölkung: Stark bewölkt 2200 ft,
Stark bewölkt 2500 ft
EHDL 150855Z AUTO 22007KT 190V280 9999 BKN022 BKN025 11/07 Q1004 WHT
EHDL - Arnhem
Aktualisierung: 15-05-2021 10:55
Stark bewölkt  
Stark bewölkt  
   Wind: SW 13 km/h
Wind: SW 13 km/h
Temperatur: 11°C
Taupunkt: 7°C
Luftfeuchte: 77%
Luftdruck: 1004 hPa
Bewölkt: Stark bewölkt
Sichtbarkeit: More than 10 km
Bewölkung: Stark bewölkt 2200 ft,
Stark bewölkt 2500 ft
EHDL 150855Z AUTO 22007KT 190V280 9999 BKN022 BKN025 11/07 Q1004 WHT
EHAM - Amsterdam
Aktualisierung: 15-05-2021 10:55
Teilweise bewölkt  
Teilweise bewölkt  
   Wind: variiert 3.7 km/h
Wind: variiert 3.7 km/h
Temperatur: 11°C
Taupunkt: 7°C
Luftfeuchte: 77%
Luftdruck: 1004 hPa
Bewölkt: Teilweise bewölkt
Sichtbarkeit: More than 10 km
Bewölkung: Teilweise bewölkt 1500 ft,
Teilweise bewölkt 3000 ft
EHAM 150855Z VRB02KT 9999 SCT015 SCT030 11/07 Q1004 NOSIG
EHDL - Ede
Aktualisierung: 15-05-2021 10:55
Stark bewölkt  
Stark bewölkt  
   Wind: SW 13 km/h
Wind: SW 13 km/h
Temperatur: 11°C
Taupunkt: 7°C
Luftfeuchte: 77%
Luftdruck: 1004 hPa
Bewölkt: Stark bewölkt
Sichtbarkeit: More than 10 km
Bewölkung: Stark bewölkt 2200 ft,
Stark bewölkt 2500 ft
EHDL 150855Z AUTO 22007KT 190V280 9999 BKN022 BKN025 11/07 Q1004 WHT
EHDL - Emmen
Aktualisierung: 15-05-2021 10:55
Stark bewölkt  
Stark bewölkt  
   Wind: SW 13 km/h
Wind: SW 13 km/h
Temperatur: 11°C
Taupunkt: 7°C
Luftfeuchte: 77%
Luftdruck: 1004 hPa
Bewölkt: Stark bewölkt
Sichtbarkeit: More than 10 km
Bewölkung: Stark bewölkt 2200 ft,
Stark bewölkt 2500 ft
EHDL 150855Z AUTO 22007KT 190V280 9999 BKN022 BKN025 11/07 Q1004 WHT
EHAM - Den Haag
Aktualisierung: 15-05-2021 10:55
Teilweise bewölkt  
Teilweise bewölkt  
   Wind: variiert 3.7 km/h
Wind: variiert 3.7 km/h
Temperatur: 11°C
Taupunkt: 7°C
Luftfeuchte: 77%
Luftdruck: 1004 hPa
Bewölkt: Teilweise bewölkt
Sichtbarkeit: More than 10 km
Bewölkung: Teilweise bewölkt 1500 ft,
Teilweise bewölkt 3000 ft
EHAM 150855Z VRB02KT 9999 SCT015 SCT030 11/07 Q1004 NOSIG
EHAM - Apeldoorn
Aktualisierung: 15-05-2021 10:55
Teilweise bewölkt  
Teilweise bewölkt  
   Wind: variiert 3.7 km/h
Wind: variiert 3.7 km/h
Temperatur: 11°C
Taupunkt: 7°C
Luftfeuchte: 77%
Luftdruck: 1004 hPa
Bewölkt: Teilweise bewölkt
Sichtbarkeit: More than 10 km
Bewölkung: Teilweise bewölkt 1500 ft,
Teilweise bewölkt 3000 ft
EHAM 150855Z VRB02KT 9999 SCT015 SCT030 11/07 Q1004 NOSIG
EHAM - Leeuwarden
Aktualisierung: 15-05-2021 10:55
Teilweise bewölkt  
Teilweise bewölkt  
   Wind: variiert 3.7 km/h
Wind: variiert 3.7 km/h
Temperatur: 11°C
Taupunkt: 7°C
Luftfeuchte: 77%
Luftdruck: 1004 hPa
Bewölkt: Teilweise bewölkt
Sichtbarkeit: More than 10 km
Bewölkung: Teilweise bewölkt 1500 ft,
Teilweise bewölkt 3000 ft
EHAM 150855Z VRB02KT 9999 SCT015 SCT030 11/07 Q1004 NOSIG
TNCC - Willemstad
Aktualisierung: 15-05-2021 10:00
leicht bewölkt  
leicht bewölkt  
   Wind: OSO 22.2 km/h
Wind: OSO 22.2 km/h
Temperatur: 26°C
Taupunkt: 22°C
Luftfeuchte: 79%
Luftdruck: 1012 hPa
Bewölkt: leicht bewölkt
Sichtbarkeit: More than 10 km
Bewölkung: leicht bewölkt 1800 ft
TNCC 150800Z AUTO 11012KT 9999 FEW018 26/22 Q1012
EHEH - Eindhoven
Aktualisierung: 15-05-2021 10:55
Bewölkt  
Bewölkt  
   Wind: SSW 9.3 km/h
Wind: SSW 9.3 km/h
Temperatur: 13°C
Taupunkt: 8°C
Luftfeuchte: 72%
Luftdruck: 1004 hPa
Bewölkt: Bewölkt
Sichtbarkeit: More than 10 km
Bewölkung: Teilweise bewölkt 2000 ft,
Stark bewölkt 2600 ft,
Bewölkt 3000 ft
EHEH 150855Z AUTO 21005KT 150V270 9999 SCT020 BKN026 OVC030 13/08 Q1004 WHT TEMPO 22010KT 4500 -SHRA -RA SCT010 SCT015CB BKN030
EHAM - Middelburg
Aktualisierung: 15-05-2021 10:55
Teilweise bewölkt  
Teilweise bewölkt  
   Wind: variiert 3.7 km/h
Wind: variiert 3.7 km/h
Temperatur: 11°C
Taupunkt: 7°C
Luftfeuchte: 77%
Luftdruck: 1004 hPa
Bewölkt: Teilweise bewölkt
Sichtbarkeit: More than 10 km
Bewölkung: Teilweise bewölkt 1500 ft,
Teilweise bewölkt 3000 ft
EHAM 150855Z VRB02KT 9999 SCT015 SCT030 11/07 Q1004 NOSIG
EHAM - Delfzijl
Aktualisierung: 15-05-2021 10:55
Teilweise bewölkt  
Teilweise bewölkt  
   Wind: variiert 3.7 km/h
Wind: variiert 3.7 km/h
Temperatur: 11°C
Taupunkt: 7°C
Luftfeuchte: 77%
Luftdruck: 1004 hPa
Bewölkt: Teilweise bewölkt
Sichtbarkeit: More than 10 km
Bewölkung: Teilweise bewölkt 1500 ft,
Teilweise bewölkt 3000 ft
EHAM 150855Z VRB02KT 9999 SCT015 SCT030 11/07 Q1004 NOSIG

Script entwickelt von  Saratoga-weather.org Angepasst für das Template von  Weerstation Leuven

Sie finden Wetter-Infos dieser Station auch auf:

UK Metoffice

European Weather Network

WeatherCloud

Weather Underground

AWEKAS

Neuwetter

Wettersektor

Von uns verwendete Ausrüstung:

Wetterstation
Davis VP2

Wetterprogramm
Meteobridge

WetterComputer
Computer

Anbieter
My provider

Davis VP2

Meteobridge

Computer

My provider